Location: Cosy Dell
(34.2789°N, 117.4537°W)
Time: 11:57:56
(UTC+00:00)

SEDSat Delta rocket - Pass Details

Date: 14 July 2020
Orbit: 533 x 1000 km, 31.4° (Epoch: 08 August)

Event Time Altitude Azimuth Distance (km) Brightness Sun altitude
Rises 05:06:24 0° 255° (WSW) 3,182 7.1 -21.1°
Reaches altitude 10° 05:08:44 10° 252° (WSW) 2,330 6.3 -21.5°
Maximum altitude 05:14:16 63° 172° (S) 953 3.7 -22.2°
Enters shadow 05:16:00 45° 113° (ESE) 1,186 4.0 -22.4°
